Flag for Canada Weather past 2 weeks in Québec, Quebec, Canada

Now
16 °F

Passing clouds.


Feels Like: -2 °F
Forecast: -4 / 23 °F
Wind: 21 mph from West

Location: Quebec Weather Station

Current Time: Jan 25, 2015 at 5:27:54 AM

Latest Report: Jan 25, 2015 at 5:00 AM


Visibility: 15 mi

Pressure: 29.28 "Hg

Humidity: 73%

Dew point: 9 °F

Location of QuébecLocation

Historic Weather in Québec — Graph

°F

Québec temperature yesterday

Maximum temperature yesterday: 28 °F (at 3:00 PM)
Minimum temperature yesterday: 25 °F (at 2:00 AM)
Average temperature yesterday: 26 °F

Past Weeks' High & Low Weather Summary

 TemperatureHumidityPressure
High34 °F (Jan 19, 10:00 AM)100% (Jan 19, 12:51 AM)30.73 "Hg (Jan 19, 12:51 AM)
Low-22 °F (Jan 14, 6:00 AM)49% (Jan 13, 3:00 AM)29.18 "Hg (Jan 25, 1:00 AM)
Average8 °F75%30.05 "Hg
* Reported Jan 10 4:00 AM — Jan 25 4:00 AM, Québec, Weather by CustomWeather, © 2014

Note: Actual official high and low records may vary slightly from our data, if they occured in-between our weather recording intervals... More about our weather records

Advertising

Québec weather history for previous 24 hours

 ConditionsComfort  
Time TempWeatherWind HumidityBarometerVisibility
4:00 AM
Jan 25
23 °FOvercast.20 mph74%29.22 "Hg15 mi
3:00 AM27 °FSnow flurries. Mostly cloudy.13 mph86%29.20 "Hg10 mi
2:00 AM27 °FSnow flurries. Overcast.14 mph86%29.19 "Hg3 mi
1:00 AM27 °FSnow flurries. Overcast.17 mph86%29.18 "Hg6 mi
12:00 AM25 °FSnow flurries. Overcast.14 mph93%29.19 "Hg7 mi
11:00 PM
Jan 24
25 °FSnow flurries. Mostly cloudy.8 mph93%29.21 "Hg10 mi
10:00 PM25 °FLight snow. Ice fog.8 mph93%29.23 "Hg6 mi
9:00 PM25 °FLight snow. Ice fog.7 mph93%29.26 "Hg4 mi
8:00 PM27 °FLight snow. Ice fog.5 mph86%29.29 "Hg4 mi
7:00 PM27 °FLight snow. Ice fog.2 mph86%29.31 "Hg4 mi
6:00 PM27 °FLight snow. Ice fog.3 mph86%29.32 "Hg5 mi
5:00 PM27 °FLight snow. Ice fog.3 mph86%29.36 "Hg5 mi
4:00 PM27 °FLight snow. Overcast.No wind86%29.38 "Hg6 mi
3:58 PM27 °FLight snow. Overcast.No wind86%29.38 "Hg6 mi
3:00 PM28 °FOvercast.5 mph80%29.41 "Hg7 mi
2:00 PM27 °FLight snow. Overcast.2 mph86%29.45 "Hg10 mi
1:00 PM27 °FLight snow. Overcast.7 mph86%29.47 "Hg10 mi
12:00 PM27 °FLight snow. Overcast.7 mph86%29.52 "Hg5 mi
11:00 AM27 °FLight snow. Overcast.6 mph86%29.55 "Hg3 mi
10:52 AM27 °FLight snow. Overcast.8 mph86%29.56 "Hg5 mi
10:00 AM27 °FLight snow. Overcast.8 mph80%29.57 "Hg5 mi
9:00 AM25 °FLight snow. Overcast.8 mph86%29.60 "Hg5 mi
8:00 AM25 °FLight snow. Overcast.9 mph86%29.62 "Hg5 mi
7:00 AM25 °FLight snow. Overcast.9 mph93%29.63 "Hg3 mi
6:00 AM25 °FLight snow. Overcast.9 mph86%29.62 "Hg3 mi
5:00 AM25 °FLight snow. Mostly cloudy.9 mph86%29.63 "Hg10 mi
Weather by CustomWeather, © 2014

See weather overviewHow to use our weather pages